This is the latest recevied weather packets stored in our database for station/object WV5G-13. If no packets are shown the sender has not sent any weather packets the latest 10 day(s).
| Time | Temp. | Humidity | Pressure | Rain* | Wind** | Luminosity | Snow |
|---|---|---|---|---|---|---|---|
| 1777921274 | 28.33° C | 22% | 1004.4 hPa | 0 mm | - | 527 W/m² | - |
| 1777920971 | 27.78° C | 24% | 1004.8 hPa | 0 mm | - | 544 W/m² | - |
| 1777920668 | 28.33° C | 23% | 1004.8 hPa | 0 mm | - | 571 W/m² | - |
| 1777920363 | 28.33° C | 23% | 1004.9 hPa | 0 mm | - | 569 W/m² | - |
| 1777920058 | 28.33° C | 23% | 1005.1 hPa | 0 mm | - | 604 W/m² | - |
| 1777919756 | 27.78° C | 25% | 1005.2 hPa | 0 mm | - | 566 W/m² | - |
| 1777919454 | 28.33° C | 24% | 1005.1 hPa | 0 mm | - | 682 W/m² | - |
| 1777919150 | 28.33° C | 23% | 1005.4 hPa | 0 mm | - | 668 W/m² | - |
| 1777918848 | 27.78° C | 24% | 1005.4 hPa | 0 mm | - | 847 W/m² | - |
| 1777918545 | 27.78° C | 23% | 1005.7 hPa | 0 mm | - | 599 W/m² | - |
| 1777918243 | 27.78° C | 24% | 1005.6 hPa | 0 mm | - | 563 W/m² | - |
| 1777917942 | 27.78° C | 24% | 1005.7 hPa | 0 mm | - | 645 W/m² | - |
| 1777917640 | 27.78° C | 24% | 1005.7 hPa | 0 mm | - | 717 W/m² | - |
| 1777917337 | 27.78° C | 23% | 1005.8 hPa | 0 mm | - | 604 W/m² | - |
| 1777917034 | 27.22° C | 23% | 1006 hPa | 0 mm | - | 616 W/m² | - |
| 1777916732 | 28.33° C | 23% | 1006 hPa | 0 mm | - | 561 W/m² | - |
| 1777916428 | 27.78° C | 23% | 1006 hPa | 0 mm | - | 598 W/m² | - |
| 1777916125 | 27.78° C | 24% | 1006.1 hPa | 0 mm | - | 632 W/m² | - |
| 1777915823 | 27.78° C | 23% | 1006.3 hPa | 0 mm | - | 685 W/m² | - |
| 1777915519 | 27.78° C | 23% | 1006.1 hPa | 0 mm | - | 538 W/m² | - |
| 1777915215 | 27.22° C | 24% | 1006.3 hPa | 0 mm | - | 677 W/m² | - |
| 1777914912 | 27.22° C | 24% | 1006.2 hPa | 0 mm | - | 509 W/m² | - |
| 1777914609 | 27.22° C | 23% | 1006.4 hPa | 0 mm | - | 600 W/m² | - |
| 1777914305 | 27.78° C | 23% | 1006.4 hPa | 0 mm | - | 682 W/m² | - |
| 1777914003 | 28.33° C | 24% | 1006.4 hPa | 0 mm | - | 786 W/m² | - |
* Rain latest hour (hover to see other rain measurements)
** Current wind speed in m/s (hover to see current wind gust speed)